Regional Weather Roundup
Issued by NWS

Home | Current Version | Previous Version | Text Only | Print | Product List | Glossary Off
Versions: 1 2 3 4 5 6 7 8 9 10 11 12 13 14 15 16 17 18 19 20 21 22 23 24 25 26 27 28 29 30 31 32 33 34 35 36 37 38 39 40 41 42 43 44 45 46 47 48 49 50

847
ASUS45 KBOI 030910
RWRID

IDAHO REGIONAL WEATHER ROUNDUP
NATIONAL WEATHER SERVICE BOISE ID
300 AM MDT TUE MAY 03 2016

NOTE: "FAIR" INDICATES FEW OR NO CLOUDS BELOW 12000 FEET
WITH NO SIGNIFICANT WEATHER AND/OR OBSTRUCTIONS TO VISIBILITY

IDZ012-014-031000-
SOUTHWEST IDAHO


CITY           SKY/WX    TMP DP  RH WIND       PRES   REMARKS
BOISE          CLEAR     55  31  39 SE8       30.09F
CALDWELL       CLEAR     46  35  65 E3        30.09F
MOUNTAIN HOME  CLEAR     48  33  56 E7        30.11S
$$

IDZ016-017-031000-
SOUTHCENTRAL IDAHO


CITY           SKY/WX    TMP DP  RH WIND       PRES   REMARKS
BURLEY         CLEAR     44  36  73 CALM      30.16R
JEROME         CLEAR     45  36  70 NE7       30.16S
TWIN FALLS     CLEAR     50  32  50 S15       30.14F
$$

IDZ019>023-031000-
SOUTHEAST IDAHO


CITY           SKY/WX    TMP DP  RH WIND       PRES   REMARKS
IDAHO FALLS    CLEAR     40  30  67 CALM      30.21S
POCATELLO      CLEAR     39  33  79 N3        30.19S
REXBURG        CLEAR     38  27  64 N3        30.21S
$$

IDZ006-010-011-018-031-032-031000-
CENTRAL IDAHO MOUNTAINS


CITY           SKY/WX    TMP DP  RH WIND       PRES   REMARKS
MCCALL         CLEAR     40  35  83 CALM      30.19S
HAILEY         CLEAR     41  32  70 NW12      30.24S
STANLEY          N/A     30  24  78 S5        30.27S WCI  25
SALMON         CLEAR     39  28  65 CALM      30.16R
CHALLIS        CLEAR     43  23  45 E5        30.19S
$$

IDZ002-004-006-007-026-031000-
NORTHERN IDAHO


CITY           SKY/WX    TMP DP  RH WIND       PRES   REMARKS
LEWISTON       CLEAR     59  43  55 CALM      30.03S
LOWELL           N/A     49  44  83 N3        30.12R
COEUR D`ALENE  CLEAR     50  43  76 NE6       30.05S
MULLAN PASS    CLEAR     55  30  38 CALM      30.20S
$$




USA.gov is the U.S. government's official web portal to all federal, state and local government web resources and services.